This demonstration page uses our WeatherBlox Daily Observations layout. Learn more.

38.89511, -77.03637

Hourly Observations for June 9, 2018

Temp ( °F °C ) Dew Point ( °F °C ) Humidity (%) Winds ( mph kmh ) Pressure ( in mb ) Visibility ( mi km ) Precip ( " mm )
12:52 am 00:52 Partly Cloudy 74 23.3 68 20 82 82 S 5 7 30.09 1019 10 16.09344 0 0
1:52 am 01:52 Mostly Clear 72 22.2 68 20 87 87 NE 3 6 30.09 1019 10 16.09344 0 0
2:52 am 02:52 Mostly Clear 72 22.2 68 20 87 87 S 6 9 30.09 1019 10 16.09344 0 0
3:52 am 03:52 Partly Cloudy 71 21.7 67 19.4 87 87 S 6 9 30.09 1019 10 16.09344 0 0
4:52 am 04:52 Mostly Cloudy 71 21.7 68 20 90 90 S 6 9 30.09 1019 9 14.484096 0 0
5:52 am 05:52 Mostly Cloudy 70 21.1 68 20 93 93 S 3 6 30.09 1019 7 11.265408 0 0
6:52 am 06:52 Mostly Cloudy with Mist and Fog 72 22.2 69 20.6 91 91 Calm 30.09 1019 6 9.656064 0 0
7:52 am 07:52 Mostly Cloudy 72 22.2 69 20.6 91 91 S 3 6 30.09 1019 7 11.265408 0 0
8:52 am 08:52 Cloudy 75 23.9 70 21.1 84 84 ENE 3 6 30.09 1019 8 12.874752 0 0
9:52 am 09:52 Mostly Cloudy 78 25.6 70 21.1 76 76 Calm 30.09 1019 10 16.09344 0 0
10:52 am 10:52 Cloudy 83 28.3 69 20.6 63 63 Calm 30.09 1019 10 16.09344 0 0
11:52 am 11:52 Cloudy 84 28.9 68 20 59 59 Calm 30.09 1019 10 16.09344 0 0
12:52 pm 12:52 Cloudy 84 28.9 68 20 59 59 ESE 3 6 30.06 1018 10 16.09344 0 0
1:32 pm 13:32 Mostly Cloudy 84 28.9 70 21.1 63 63 NE 13 20 30.06 1018 10 16.09344 0 0
1:52 pm 13:52 Mostly Cloudy 79 26.1 70 21.1 74 74 NE 14 22 30.03 1017 10 16.09344 0 0
2:19 pm 14:19 Cloudy with Nearby Thunderstorms 80 26.7 69 20.6 69 69 SSE 7 11 30.06 1018 10 16.09344 0 0
2:34 pm 14:34 Cloudy 80 26.7 68 20 67 67 SE 10 17 30.06 1018 10 16.09344 0 0
2:52 pm 14:52 Cloudy 76 24.4 67 19.4 74 74 SE 6 9 30.03 1017 10 16.09344 0 0
3:14 pm 15:14 Cloudy 78 25.6 68 20 71 71 SE 8 13 30.03 1017 10 16.09344 0 0
3:52 pm 15:52 Partly Cloudy 80 26.7 69 20.6 69 69 S 8 13 30 1016 10 16.09344 0 0
4:15 pm 16:15 Partly Cloudy with Nearby Thunderstorms 80 26.7 68 20 67 67 SSW 5 7 30 1016 10 16.09344 0 0
4:30 pm 16:30 Mostly Cloudy 82 27.8 69 20.6 65 65 Calm 30 1016 10 16.09344 0 0
4:52 pm 16:52 Mostly Cloudy 82 27.8 69 20.6 65 65 SSE 3 6 30 1016 10 16.09344 0 0
5:26 pm 17:26 Mostly Cloudy 84 28.9 69 20.6 61 61 Calm 30.03 1017 10 16.09344 0 0
5:49 pm 17:49 Mostly Cloudy 79 26 66 19 65 65 NE 13 20 30 1016 10 16.09344 0 0
5:52 pm 17:52 Mostly Cloudy 79 26.1 67 19.4 67 67 ENE 14 22 30 1016 10 16.09344 0 0
6:06 pm 18:06 Cloudy with Thunderstorms 76 24.4 62 16.7 62 62 E 14 22 30.03 1017 10 16.09344 0 0
6:14 pm 18:14 Cloudy with Thunderstorms 75 23.9 63 17.2 66 66 E 8 13 30.03 1017 10 16.09344 0 0
6:52 pm 18:52 Partly Cloudy with Thunderstorms 77 25 66 18.9 69 69 E 5 7 30 1016 10 16.09344 0 0
7:27 pm 19:27 Mostly Cloudy with Nearby Thunderstorms 74 23.3 67 19.4 79 79 SSE 9 15 30.03 1017 10 16.09344 0 0
7:39 pm 19:39 Cloudy with Thunderstorms 74 23.3 67 19.4 79 79 S 9 15 30.03 1017 10 16.09344 0 0
7:52 pm 19:52 Cloudy with Thunderstorms 74 23.3 66 18.9 76 76 SSE 7 11 30.03 1017 10 16.09344 0 0
8:15 pm 20:15 Cloudy with Thunderstorms 74 23.3 67 19.4 79 79 SSE 6 9 30.06 1018 10 16.09344 0 0
8:52 pm 20:52 Cloudy with Thunderstorms 73 22.8 68 20 84 84 SSW 5 7 30.03 1017 10 16.09344 0 0
9:32 pm 21:32 Cloudy with Light Thunderstorms 74 23.3 68 20 82 82 S 3 6 30.06 1018 10 16.09344 0.01 0.254
9:52 pm 21:52 Cloudy with Light Thunderstorms 73 22.8 69 20.6 87 87 S 8 13 30.06 1018 9 14.484096 0.03 0.762
10:18 pm 22:18 Cloudy with Nearby Thunderstorms 72 22.2 68 20 87 87 SSE 9 15 30.06 1018 7 11.265408 0.05 1.27
10:52 pm 22:52 Mostly Cloudy with Nearby Thunderstorms 71 21.7 68 20 90 90 S 6 9 30.03 1017 10 16.09344 0.07 1.778
11:11 pm 23:11 Mostly Cloudy 72 22.2 68 20 87 87 S 3 6 30.06 1018 10 16.09344 0 0
11:19 pm 23:19 Mostly Cloudy with Nearby Thunderstorms 72 22.2 68 20 87 87 S 3 6 30.06 1018 10 16.09344 0 0
11:31 pm 23:31 Mostly Cloudy with Thunderstorms 72 22.2 68 20 87 87 S 5 7 30.06 1018 10 16.09344 0 0
11:42 pm 23:42 Mostly Cloudy 71 21.7 68 20 90 90 Calm 30.03 1017 10 16.09344 0 0
11:52 pm 23:52 Mostly Cloudy 71 21.7 68 20 90 90 Calm 30.03 1017 10 16.09344 0 0

Powered by AerisWeather